Weather History for St. Joseph, MO

Change the Weather History Date:

Monday, December 24, 2012

  Actual Average Record
Temperature  
Mean Temperature 19 °F 27 °F  
Max Temperature 22 °F 37 °F 60 °F (1955)
Min Temperature 16 °F 18 °F -15 °F (1983)
Degree Days  
Heating Degree Days 46 38  
Month to date heating degree days 684 835  
Since 1 July heating degree days 1796 1946  
Cooling Degree Days 0 0  
Month to date cooling degree days 0 0  
Year to date cooling degree days 1565 1221  
Moisture  
Dew Point 12 °F    
Average Humidity 76    
Maximum Humidity 84    
Minimum Humidity 67    
Precipitation  
Precipitation 0.00 in 0.05 in 1.12 in (1965)
Month to date precipitation 0.94 1.22  
Year to date precipitation 23.25 35.30  
Sea Level Pressure  
Sea Level Pressure 30.12 in    
Wind  
Wind Speed 12 mph (North)    
Max Wind Speed 20 mph    
Max Gust Speed 24 mph    
Visibility 8 miles    
Events      
T = Trace of Precipitation, MM = Missing Value Source: NWS Daily Summary

Daily Weather History Graph

Daily Weather History Graph

Search for Another Location

Airport:

Trip Planner

Search our weather history database for the weather conditions in past years. The results will help you decide how hot, cold, wet, or windy it might be!

Date:

Astronomy

Dec. 24, 2012 Rise Set
Actual Time 7:38 AM CST 5:00 PM CST
Civil Twilight 7:08 AM CST 5:30 PM CST
Nautical Twilight 6:34 AM CST 6:04 PM CST
Astronomical Twilight 6:01 AM CST 6:37 PM CST
Moon 2:28 PM CST (12/24) 4:18 AM CST (12/24)
Length of Visible Light 10h 22m
Length of Day
9h 21m
Waxing Gibbous, 88% of the Moon is Illuminated
Dec 24
Waxing Gibbous
Dec 28
Full
Jan 4
Last Quarter
Jan 11
New
Jan 18
First Quarter

Hourly Weather History & Observations

Time (CST) Temp. Windchill Dew Point Humidity Pressure Visibility Wind Dir Wind Speed Gust Speed Precip Events Conditions
12:53 AM 19.9 °F 9.3 °F 16.0 °F 85% 30.03 in 6.0 mi NNW 9.2 mph - N/A   Clear
1:53 AM 19.0 °F 7.5 °F 14.0 °F 81% 30.04 in 5.0 mi NNW 10.4 mph - N/A   Haze
2:53 AM 17.1 °F 5.8 °F 12.9 °F 84% 30.04 in 5.0 mi NNW 9.2 mph - N/A   Clear
3:37 AM 17.6 °F 8.2 °F 12.2 °F 79% 30.00 in 5.0 mi NW 6.9 mph - N/A   Mostly Cloudy
3:49 AM 17.6 °F 3.2 °F 12.2 °F 79% 30.00 in 5.0 mi NNW 15.0 mph - N/A   Haze
3:53 AM 18.0 °F 2.6 °F 12.9 °F 81% 30.03 in 5.0 mi North 17.3 mph - N/A   Haze
4:53 AM 19.0 °F 5.6 °F 15.1 °F 85% 30.06 in 4.0 mi NW 13.8 mph - N/A   Overcast
5:53 AM 19.9 °F 7.3 °F 15.1 °F 81% 30.07 in 4.0 mi NNW 12.7 mph - N/A   Haze
6:25 AM 19.4 °F 6.0 °F 15.8 °F 86% 30.05 in 4.0 mi NNW 13.8 mph - N/A   Haze
6:53 AM 19.9 °F 7.3 °F 15.1 °F 81% 30.10 in 4.0 mi NNW 12.7 mph - N/A   Haze
7:53 AM 18.0 °F 4.8 °F 12.9 °F 81% 30.11 in 6.0 mi NW 12.7 mph - N/A   Haze
8:08 AM 17.6 °F 3.7 °F 12.2 °F 79% 30.08 in 7.0 mi NW 13.8 mph - N/A   Overcast
8:53 AM 16.0 °F -0.4 °F 9.0 °F 74% 30.13 in 9.0 mi NNW 18.4 mph 24.2 mph N/A   Mostly Cloudy
9:53 AM 17.1 °F 2.0 °F 9.0 °F 71% 30.16 in 10.0 mi NW 16.1 mph - N/A   Overcast
10:53 AM 18.0 °F 3.6 °F 10.0 °F 71% 30.16 in 8.0 mi North 15.0 mph - N/A   Overcast
11:53 AM 18.0 °F 3.1 °F 10.0 °F 71% 30.14 in 10.0 mi North 16.1 mph - N/A   Overcast
12:53 PM 19.0 °F 6.1 °F 10.9 °F 71% 30.14 in 9.0 mi NNW 12.7 mph - N/A   Overcast
1:53 PM 19.9 °F 7.9 °F 10.9 °F 68% 30.14 in 10.0 mi North 11.5 mph - N/A   Overcast
2:53 PM 21.9 °F 10.4 °F 12.0 °F 66% 30.15 in 10.0 mi NNW 11.5 mph - N/A   Mostly Cloudy
3:03 PM 21.2 °F 9.5 °F 12.2 °F 68% 30.12 in 10.0 mi North 11.5 mph - N/A   Scattered Clouds
3:53 PM 21.0 °F 8.1 °F 12.0 °F 68% 30.17 in 10.0 mi North 13.8 mph - N/A   Clear
4:53 PM 19.9 °F 7.3 °F 12.0 °F 71% 30.19 in 10.0 mi North 12.7 mph - N/A   Mostly Cloudy
5:53 PM 19.0 °F 6.8 °F 10.9 °F 71% 30.19 in 10.0 mi North 11.5 mph - N/A   Mostly Cloudy
6:53 PM 19.0 °F 10.0 °F 12.0 °F 74% 30.18 in 10.0 mi NNE 6.9 mph - N/A   Clear
7:53 PM 19.9 °F 7.3 °F 12.0 °F 71% 30.19 in 10.0 mi NNE 12.7 mph - N/A   Mostly Cloudy
8:53 PM 19.0 °F 10.0 °F 12.0 °F 74% 30.19 in 10.0 mi NNE 6.9 mph - N/A   Clear
9:53 PM 19.0 °F 9.0 °F 10.9 °F 71% 30.22 in 10.0 mi NNE 8.1 mph - N/A   Partly Cloudy
10:53 PM 19.0 °F 6.8 °F 10.9 °F 71% 30.24 in 10.0 mi NNE 11.5 mph - N/A   Clear
11:53 PM 18.0 °F 6.9 °F 10.9 °F 74% 30.25 in 10.0 mi NE 9.2 mph - N/A   Clear